Regional Weather Roundup
Issued by NWS

Home | Current Version | Previous Version | Text Only | Print | Product List | Glossary Off
Versions: 1 2 3 4 5 6 7 8 9 10 11 12 13 14 15 16 17 18 19 20 21 22 23 24 25 26 27 28 29 30 31 32 33 34 35 36 37 38 39 40 41 42 43 44 45 46 47 48 49 50

000
ASUS43 KBIS 281602
RWRND

NORTH DAKOTA REGIONAL WEATHER ROUNDUP
NATIONAL WEATHER SERVICE BISMARCK ND
1100 AM CDT SUN MAY 28 2017

NOTE: "FAIR" INDICATES FEW OR NO CLOUDS BELOW 12,000 FEET WITH NO
SIGNIFICANT WEATHER AND/OR OBSTRUCTIONS TO VISIBILITY.


NDZ001>003-009>011-017-281700-
NORTHWEST NORTH DAKOTA

CITY           SKY/WX    TMP DP  RH WIND       PRES   REMARKS
WILLISTON      FAIR      71  36  27 NW14G21   29.97S
MINOT          PTSUNNY   66  40  38 NW22      29.88F
MINOT AFB      MOSUNNY   64  43  45 NW20G30   29.86F
$$

NDZ018>021-031>035-040>046-281700-
SOUTHWEST NORTH DAKOTA

CITY           SKY/WX    TMP DP  RH WIND       PRES   REMARKS
BISMARCK       PTSUNNY   67  43  41 NW15G25   29.93F
DICKINSON      FAIR      66  30  26 W14       29.97F
GARRISON         N/A     65  42  43 NW18      29.90F
HETTINGER ARPT SUNNY     68  37  32 NW14G24   30.02F
$$

NDZ004>008-012>016-024-026-027-054-281700-
NORTHEAST NORTH DAKOTA

CITY           SKY/WX    TMP DP  RH WIND       PRES   REMARKS
GRAND FORKS    CLOUDY    60  52  74 NW14      29.76F
GRND FRKS AFB  PTSUNNY   59  49  71 N17G24    29.77S
DEVILS LAKE    PTSUNNY   62  45  53 NW21      29.81F
$$

NDZ022-023-025-028>030-036>039-047>053-281700-
SOUTHEAST NORTH DAKOTA

CITY           SKY/WX    TMP DP  RH WIND       PRES   REMARKS
FARGO          CLOUDY    62  48  60 NW20G29   29.77F
JAMESTOWN      FAIR      62  41  46 NW24G33   29.83F
$$




USA.gov is the U.S. government's official web portal to all federal, state and local government web resources and services.